FW3894 Weather Reports


Display with metric or nautical units.
time (UTC)temp
F
wind
direction
speed
MPH
gust
MPH
rain 1hr
in
rain 24hr
in
rain mn
in
humidity
%
barometer
mb
20260505052509 53 175 4.0 9.0 0.00 0.00 0.00 89 1009.7
20260505052016 53 182 5.0 8.0 0.00 0.00 0.00 89 1009.9
20260505051532 53 205 4.0 7.0 0.00 0.00 0.00 89 1009.9
20260505051011 53 136 3.0 8.0 0.00 0.00 0.00 89 1009.9
20260505050509 53 185 4.0 9.0 0.00 0.00 0.00 89 1010.0
20260505041548 57 192 5.0 10.0 0.00 0.00 0.00 84 1010.2
20260505041008 58 202 4.0 10.0 0.00 0.00 0.00 84 1010.1
20260505040508 58 178 4.0 10.0 0.00 0.00 0.00 84 1010.1
20260505040039 58 223 5.0 10.0 0.00 0.00 0.00 84 1010.1
20260505035511 57 186 4.0 9.0 0.00 0.00 0.00 84 1010.2
20260505035010 57 263 3.0 10.0 0.00 0.00 0.00 85 1010.2
20260505034532 56 196 4.0 10.0 0.00 0.00 0.00 84 1010.2
20260505034010 57 162 4.0 7.0 0.00 0.00 0.00 82 1010.3
20260505033514 57 186 4.0 7.0 0.00 0.00 0.00 81 1010.2
20260505033030 58 161 4.0 8.0 0.00 0.00 0.00 81 1010.2
20260505032510 58 198 3.0 9.0 0.00 0.00 0.00 82 1010.2
20260505032014 57 168 3.0 9.0 0.00 0.00 0.00 81 1010.3
20260505031539 57 197 3.0 8.0 0.00 0.00 0.00 82 1010.5
20260505031010 56 236 3.0 6.0 0.00 0.00 0.00 81 1010.4
20260505030510 56 188 3.0 6.0 0.00 0.00 0.00 80 1010.4
20260505030032 57 192 3.0 8.0 0.00 0.00 0.00 79 1010.5
20260505025511 57 186 3.0 8.0 0.00 0.00 0.00 78 1010.4
20260505025014 57 224 3.0 7.0 0.00 0.00 0.00 78 1010.5
20260505024533 57 214 3.0 6.0 0.00 0.00 0.00 78 1010.6
20260505024010 58 182 2.0 5.0 0.00 0.00 0.00 77 1010.4
20260505023510 58 197 2.0 5.0 0.00 0.00 0.00 77 1010.4
20260505023031 58 191 2.0 5.0 0.00 0.00 0.00 77 1010.6
20260505022510 58 198 2.0 7.0 0.00 0.00 0.00 76 1010.7
20260505022014 58 163 2.0 7.0 0.00 0.00 0.00 76 1010.7
20260505021534 59 194 2.0 9.0 0.00 0.00 0.00 75 1010.7
20260505021012 60 171 2.0 9.0 0.00 0.00 0.00 73 1010.8
20260505020513 60 203 2.0 9.0 0.00 0.00 0.00 72 1010.8
20260505020028 60 255 3.0 9.0 0.00 0.00 0.00 72 1010.7
20260505015509 60 290 3.0 8.0 0.00 0.00 0.00 73 1010.7
20260505015014 60 202 3.0 9.0 0.00 0.00 0.00 73 1010.6
20260505014539 60 175 3.0 9.0 0.00 0.00 0.00 73 1010.7
20260505014011 60 224 3.0 9.0 0.00 0.00 0.00 73 1010.7
20260505013514 60 223 3.0 9.0 0.00 0.00 0.00 73 1010.7
20260505013029 60 170 3.0 9.0 0.00 0.00 0.00 74 1010.6
20260505012512 60 192 3.0 10.0 0.00 0.00 0.00 74 1010.7
20260505012011 59 200 3.0 10.0 0.00 0.00 0.00 76 1010.5
20260505011532 59 170 3.0 9.0 0.00 0.00 0.00 77 1010.4
20260505011010 58 174 3.0 8.0 0.00 0.00 0.00 78 1010.5
20260505010510 58 192 2.0 8.0 0.00 0.00 0.00 78 1010.3
20260505010029 58 197 3.0 8.0 0.00 0.00 0.00 78 1010.4
20260505005511 58 177 3.0 8.0 0.00 0.00 0.00 78 1010.3
20260505005011 58 182 3.0 9.0 0.00 0.00 0.00 77 1010.3
20260505004536 59 170 3.0 9.0 0.00 0.00 0.00 77 1010.2
20260505004008 59 205 3.0 12.0 0.00 0.00 0.00 77 1010.2
20260505003513 59 232 3.0 12.0 0.00 0.00 0.00 78 1010.2
20260505003032 58 234 3.0 11.0 0.00 0.00 0.00 78 1010.1
20260505002510 58 187 4.0 11.0 0.00 0.00 0.00 79 1010.0
20260505002009 58 232 3.0 11.0 0.00 0.00 0.00 79 1009.9
20260505001532 59 178 4.0 11.0 0.00 0.00 0.00 78 1009.9
20260505001009 59 254 4.0 11.0 0.00 0.00 0.00 77 1009.9
20260505000517 59 219 4.0 11.0 0.00 0.00 0.00 77 1009.5
20260505000038 59 199 5.0 12.0 0.00 0.00 0.00 76 1009.5
20260504235510 59 253 4.0 12.0 0.00 0.00 0.00 76 1009.5
20260504235013 59 246 5.0 12.0 0.00 0.00 0.00 76 1009.5
20260504234534 60 199 5.0 11.0 0.00 0.00 0.00 74 1009.5
20260504234010 60 191 6.0 11.0 0.00 0.00 0.00 74 1009.4
20260504233511 60 193 5.0 11.0 0.00 0.00 0.00 73 1009.4
20260504233038 60 263 5.0 10.0 0.00 0.00 0.00 73 1009.4
20260504232513 61 194 4.0 14.0 0.00 0.00 0.00 72 1009.3
20260504232015 61 182 5.0 15.0 0.00 0.00 0.00 70 1009.2
20260504231528 62 209 6.0 15.0 0.00 0.00 0.00 68 1009.2
20260504231012 62 155 5.0 12.0 0.00 0.00 0.00 68 1009.3
20260504230510 62 181 5.0 15.0 0.00 0.00 0.00 68 1009.1
20260504230035 63 225 5.0 15.0 0.00 0.00 0.00 67 1009.1
20260504225509 63 180 6.0 15.0 0.00 0.00 0.00 65 1009.0
20260504225011 63 270 6.0 15.0 0.00 0.00 0.00 64 1009.0
20260504224531 63 197 6.0 15.0 0.00 0.00 0.00 63 1009.1
20260504224007 63 208 6.0 15.0 0.00 0.00 0.00 63 1009.2
20260504223511 63 194 5.0 15.0 0.00 0.00 0.00 63 1009.0
20260504223044 63 184 7.0 20.0 0.00 0.00 0.00 63 1009.0
20260504222509 63 248 7.0 20.0 0.00 0.00 0.00 65 1009.1
20260504222015 63 234 6.0 15.0 0.00 0.00 0.00 66 1009.1
20260504221528 63 234 6.0 17.0 0.00 0.00 0.00 66 1009.1
20260504221010 63 169 8.0 17.0 0.00 0.00 0.00 65 1009.3
20260504220514 64 192 8.0 16.0 0.00 0.00 0.00 62 1009.2
20260504220031 64 202 8.0 17.0 0.00 0.00 0.00 62 1009.1
20260504215511 63 186 7.0 17.0 0.00 0.00 0.00 63 1009.3
20260504215015 62 257 7.0 16.0 0.00 0.00 0.00 66 1009.2
20260504214531 59 266 7.0 18.0 0.00 0.00 0.00 73 1009.3
20260504214007 59 188 8.0 18.0 0.00 0.00 0.00 75 1009.4
20260504213516 59 207 9.0 19.0 0.00 0.00 0.00 73 1009.3
20260504213042 60 228 9.0 19.0 0.00 0.00 0.00 73 1009.5
20260504212515 60 186 9.0 19.0 0.00 0.00 0.00 73 1009.2
20260504212014 60 198 7.0 19.0 0.00 0.00 0.00 72 1009.3
20260504211534 60 202 8.0 20.0 0.00 0.00 0.00 73 1009.3
20260504211010 59 159 9.0 20.0 0.00 0.00 0.00 74 1009.3
20260504210511 60 208 10.0 17.0 0.00 0.00 0.00 73 1009.3
20260504210030 58 161 9.0 16.0 0.00 0.00 0.00 76 1009.3
20260504205510 57 201 9.0 17.0 0.00 0.00 0.00 80 1009.3
20260504205013 57 213 10.0 17.0 0.00 0.00 0.00 80 1009.3
20260504204541 57 192 9.0 21.0 0.00 0.00 0.00 80 1009.2
20260504204014 57 180 10.0 21.0 0.00 0.00 0.00 80 1009.3
20260504203514 57 190 10.0 20.0 0.00 0.00 0.00 79 1009.2
20260504203033 57 191 10.0 22.0 0.00 0.00 0.00 79 1009.2
20260504202510 57 205 10.0 22.0 0.00 0.00 0.00 79 1009.3
20260504202014 57 194 10.0 19.0 0.00 0.00 0.00 78 1009.2
20260504201530 57 212 10.0 24.0 0.00 0.00 0.00 78 1009.2
20260504201010 57 173 9.0 24.0 0.00 0.00 0.00 78 1009.5
20260504200511 57 178 12.0 22.0 0.00 0.00 0.00 78 1009.3
20260504200028 57 107 10.0 22.0 0.00 0.00 0.00 77 1009.3
20260504195511 58 211 10.0 19.0 0.00 0.00 0.00 76 1009.3
20260504195016 58 190 10.0 19.0 0.00 0.00 0.00 77 1009.4
20260504194528 58 182 9.0 24.0 0.00 0.00 0.00 77 1009.4
20260504194010 58 188 12.0 24.0 0.00 0.00 0.00 75 1009.4
20260504193511 58 179 10.0 19.0 0.00 0.00 0.00 75 1009.5
20260504193031 58 188 10.0 19.0 0.00 0.00 0.00 75 1009.5
20260504192510 58 216 9.0 19.0 0.00 0.00 0.00 76 1009.6
20260504192013 58 162 8.0 21.0 0.00 0.00 0.00 75 1009.6
20260504191529 58 175 10.0 22.0 0.00 0.00 0.00 75 1009.9
20260504191009 58 180 11.0 22.0 0.00 0.00 0.00 75 1009.8
20260504190510 58 175 10.0 18.0 0.00 0.00 0.00 75 1009.8
20260504190030 58 145 9.0 19.0 0.00 0.00 0.00 75 1010.0
20260504185508 58 224 9.0 20.0 0.00 0.00 0.00 76 1010.1
20260504185011 58 184 9.0 21.0 0.00 0.00 0.00 75 1010.1
20260504184530 58 203 10.0 21.0 0.00 0.00 0.00 74 1010.1
20260504184011 59 186 10.0 17.0 0.00 0.00 0.00 73 1010.1
20260504183517 59 195 8.0 18.0 0.00 0.00 0.00 75 1010.1
20260504183030 58 169 10.0 18.0 0.00 0.00 0.00 75 1010.3
20260504182508 58 187 10.0 20.0 0.00 0.00 0.00 75 1010.5
20260504182015 58 182 11.0 20.0 0.00 0.00 0.00 76 1010.3
20260504181533 59 188 10.0 19.0 0.00 0.00 0.00 74 1010.5
20260504181013 59 136 6.0 19.0 0.00 0.00 0.00 75 1010.4
20260504180514 59 177 8.0 17.0 0.00 0.00 0.00 75 1010.6
20260504180030 59 175 8.0 18.0 0.00 0.00 0.00 75 1010.7
20260504175509 59 155 8.0 20.0 0.00 0.00 0.00 75 1010.7
20260504175011 59 192 9.0 20.0 0.00 0.00 0.00 74 1010.8
20260504174530 59 187 7.0 16.0 0.00 0.00 0.00 73 1010.8
20260504174010 59 145 9.0 18.0 0.00 0.00 0.00 73 1010.9
20260504173512 59 161 8.0 18.0 0.00 0.00 0.00 73 1010.9
20260504173028 59 164 8.0 17.0 0.00 0.00 0.00 73 1010.8
20260504172512 60 160 10.0 18.0 0.00 0.00 0.00 71 1010.9
20260504172017 61 182 9.0 18.0 0.00 0.00 0.00 69 1010.9
20260504171528 60 180 9.0 16.0 0.00 0.00 0.00 72 1011.1
20260504171013 59 156 9.0 15.0 0.00 0.00 0.00 72 1011.0
20260504170513 59 194 7.0 15.0 0.00 0.00 0.00 72 1011.2
20260504151013 60 262 4.0 15.0 0.00 0.00 0.00 69 1012.5
20260504150513 61 175 7.0 15.0 0.00 0.00 0.00 65 1012.5
20260504141009 62 280 7.0 16.0 0.00 0.00 0.00 45 1013.0
20260504140508 62 265 8.0 16.0 0.00 0.00 0.00 47 1012.8
20260504130512 59 241 8.0 15.0 0.00 0.00 0.00 54 1013.4
20260504110510 50 317 8.0 14.0 0.00 0.00 0.00 73 1014.1
20260504100512 50 263 7.0 17.0 0.00 0.00 0.00 69 1013.9
20260504081531 50 337 6.0 13.0 0.00 0.00 0.00 61 1013.7
20260504081010 50 278 8.0 13.0 0.00 0.00 0.00 61 1013.5
20260504080511 49 279 6.0 13.0 0.00 0.00 0.00 62 1013.6